Theta_e
366 363 363 364 359 358 353 356 362 365 363 360 364 367 367 365 360 363 363 363 362 357
367 366 361 365 367 364 370 353 363 363 362 364 364 365 365 360 359 364 363 361 362 359
367 368 367 369 371 366 370 368 359 363 365 364 364 363 366 360 362 362 361 358 359 359
364 365 367 365 367 372 370 375 365 366 365 365 364 367 364 361 362 361 359 359 358 356
365 365 364 364 365 367 369 375 371 368 368 366 363 364 362 360 357 359 359 357 357 354
361 362 363 364 366 366 367 370 369 368 364 364 363 363 363 360 360 360 359 358 355 353
363 362 361 364 366 366 369 366 368 368 367 367 365 363 362 361 360 359 358 358 355 353
371 378 375 370 372 366 368 368 368 368 368 367 367 365 364 362 360 359 357 358 357 354
358 366 372 374 376 374 367 366 368 368 368 366 365 351 347 359 361 360 357 355 357 356
341 349 351 348 352 364 364 366 365 366 367 367 368 346 341 347 360 359 358 357 356 354
340 343 344 338 333 336 350 360 365 365 365 365 367 345 341 341 357 360 360 359 358 354
343 347 349 344 335 336 353 361 365 366 365 365 365 342 338 340 355 355 357 359 358 354
359 356 355 354 355 362 366 362 364 363 364 358 366 345 334 337 358 353 351 353 356 339
364 361 362 357 360 358 364 363 366 366 365 365 363 363 328 327 356 356 348 344 342 340
Wind_Speed
12 8 7 7 8 7 8 9 13 11 9 9 7 5 5 4 6 7 4 5 4 3
11 11 10 9 7 5 4 8 9 12 12 10 8 8 8 5 7 5 5 5 4 2
12 11 10 8 7 7 5 8 10 10 12 9 8 10 9 7 8 6 6 3 6 3
12 13 12 10 9 7 7 4 11 8 8 8 8 6 7 8 6 9 6 4 6 5
12 11 12 12 10 10 8 6 8 10 8 8 9 10 10 10 7 7 7 8 6 6
13 11 11 12 11 11 10 9 9 9 11 12 12 11 10 10 10 7 10 9 9 7
9 11 12 10 13 10 11 12 11 11 11 12 12 12 12 13 12 11 10 11 10 10
6 1 5 6 8 11 10 12 12 12 12 13 12 11 14 14 13 13 12 10 10 11
6 5 7 5 3 3 8 10 11 13 14 14 12 17 18 16 13 13 13 12 11 10
10 10 3 7 11 9 9 9 12 13 15 15 15 15 16 19 14 13 14 14 12 12
7 4 8 6 6 10 16 15 10 12 14 15 13 15 17 16 16 14 14 15 16 15
6 8 5 4 10 11 23 9 10 12 14 14 14 15 17 14 12 15 15 13 14 15
10 6 3 5 6 8 6 9 8 11 12 14 14 14 17 15 9 12 9 10 12 17
5 4 2 3 2 3 5 5 6 8 10 12 11 11 11 14 12 13 8 9 8 9
Wind_Direction
208 220 208 206 208 209 176 208 171 170 181 197 224 176 171 193 220 198 186 220 243 338
201 216 213 213 211 216 191 179 172 169 177 189 204 197 181 205 225 165 199 196 201 205
204 205 228 214 219 197 249 138 131 180 182 182 202 196 176 209 200 188 190 216 179 177
205 205 207 234 202 198 199 182 161 173 182 178 189 189 190 229 211 187 184 225 161 161
200 206 200 211 217 204 199 198 164 168 185 188 199 195 197 218 225 188 196 191 194 174
191 203 211 199 225 195 196 206 191 184 193 199 202 203 200 202 218 224 198 197 192 191
198 193 204 205 196 220 196 201 203 203 206 206 205 208 210 209 209 215 225 197 192 194
32 279 202 217 196 202 208 203 207 204 209 211 214 215 210 213 211 212 217 219 194 194
43 357 292 285 292 274 239 230 208 216 214 214 216 212 210 205 213 211 213 220 203 200
195 192 33 47 5 315 261 250 241 228 227 225 225 222 216 208 212 213 209 211 210 203
144 166 234 156 106 348 313 258 246 245 236 233 235 219 216 209 219 215 214 209 209 199
170 200 207 156 108 187 249 248 252 246 245 240 238 218 215 206 216 224 222 213 213 198
196 212 219 194 182 209 209 231 240 254 249 244 242 228 210 208 219 223 225 216 211 195
162 166 210 173 219 261 269 286 280 247 257 258 254 252 196 210 219 221 201 195 198 187